[[{"header":{"parameterUnit":"m.s-1","parameterCategory":1,"la1":30.2991,"la2":30.254,"lo1":-89.0895,"lo2":-89.0444,"dy":0.0017,"dx":0.0017,"nx":28,"ny":28,"refTime":"2023-08-08T09:00:00:Z","depth":0,"parameterNumber":2,"parameterNumberName":"U-component_of_WINDS"},"data":[0,0,0,0,0,0,0,0,0,0,0,0,0,0,0,0,0,0,0,0,0,0,0,0,0,0,0,0,0,0,0,0,0,0,0,0,0,0,0,0,0,0,0,0,0,0,0,0,0,0,0,0,0,0,0,0,0,0,4.7095,4.7096,0,4.7212,4.7213,4.7215,4.7152,4.7149,4.7146,4.7143,4.7262,4.7268,4.7274,0,0,0,0,0,0,0,0,0,0,0,0,0,4.6812,4.6818,4.7095,4.7096,4.7098,4.7212,4.7214,4.7215,4.7153,4.7149,4.7145,4.7142,4.726,4.7267,4.7274,0,0,0,0,0,0,0,0,0,0,0,0,0,4.6933,4.682,4.7094,4.708,4.708,4.7212,4.7214,4.7216,4.7154,4.7149,4.7144,4.714,4.7257,4.7266,4.7275,4.7427,0,0,4.7303,4.7307,0,0,0,0,0,0,0,0,4.6926,4.6943,4.7081,4.7082,4.7082,4.7163,4.7157,4.7286,4.7155,4.7126,4.7143,4.7137,4.7233,4.7243,4.7276,4.7432,4.7437,4.7304,4.731,4.7314,4.7316,0,0,0,0,0,0,0,4.6918,4.6938,4.7141,4.7083,4.7084,4.7067,4.7079,4.7181,4.7204,4.7128,4.7124,4.7139,4.7232,4.7267,4.7278,4.7439,4.7304,4.7312,4.7318,4.7321,4.772,4.7725,0,0,0,0,0,0,4.6911,4.6931,4.7137,4.7145,4.6991,4.7076,4.7089,4.7142,4.7203,4.7208,4.7142,4.7135,4.7254,4.7268,4.7282,4.7459,4.7313,4.7322,4.7327,4.7715,4.7721,4.7726,0,0,0,0,0,0,4.6905,4.693,4.7133,4.7037,4.7061,4.7086,4.7145,4.7146,4.7182,4.7214,4.7217,4.7175,4.7251,4.7269,4.739,4.7463,4.7326,4.7334,4.7709,4.7717,4.7724,4.7817,0,0,0,0,0,0,4.6897,4.6928,4.6987,4.7039,4.7067,4.724,4.715,4.7152,4.7198,4.7189,4.7245,4.725,4.7248,4.7377,4.7399,4.7473,4.7342,4.7702,4.7712,4.7721,4.7808,4.7827,4.7844,0,0,0,0,0,4.6887,4.701,4.699,4.7016,4.7141,4.7245,4.7261,4.7257,4.7204,4.7262,4.7282,4.7248,4.7452,4.739,4.7414,4.7492,4.7698,4.7709,4.772,4.78,4.7823,4.7843,0,0,0,0,0,0,4.6966,4.7016,4.6995,4.7139,4.7188,4.7234,4.7308,4.7283,4.7348,4.7337,4.7329,4.7343,4.7467,4.7492,4.7422,4.7639,4.7566,4.7583,4.7618,4.7641,4.7658,4.7648,4.7349,0,0,0,0,0,4.7,4.7081,4.712,4.7242,4.7268,4.7284,4.7329,4.7321,4.7372,4.7392,4.7421,4.7471,4.7545,4.7595,4.7666,4.7812,4.782,4.7877,4.7895,4.7909,4.7923,4.7997,4.8022,4.7764,4.7764,4.7764,0,0,4.7072,4.7109,4.716,4.7259,4.7296,4.7378,4.7302,4.7393,4.7452,4.7406,4.7521,4.7544,4.7598,4.7731,4.7791,4.7755,4.7997,4.7924,4.7936,4.7941,4.8012,4.8036,4.8058,4.7772,4.777,4.7769,0,0,4.7242,4.728,4.7384,4.7422,4.7479,4.7488,4.7513,4.7563,4.7576,4.7691,4.7657,4.7727,4.7857,4.7896,4.7933,4.8114,4.8083,4.8138,4.8231,4.8303,4.8323,4.8341,4.8402,4.8424,4.8152,4.8152,4.8152,0,4.7323,4.7446,4.744,4.7533,4.7575,4.7537,4.764,4.7677,4.7755,4.7784,4.7743,4.7902,4.7937,4.8076,4.8119,4.8152,4.8177,4.813,4.8321,4.8339,4.8356,4.8413,4.8436,4.8158,4.8158,4.8157,4.8156,0,4.754,4.7626,4.7703,4.7777,4.7828,4.7926,4.7933,4.7986,4.7973,4.7986,4.8101,4.8141,4.8217,4.825,4.824,4.8386,4.8362,4.8322,4.8248,4.8386,4.844,4.8462,4.8167,4.8165,4.8163,4.8161,0,0,4.7765,4.7832,4.786,4.7891,4.795,4.8015,4.8109,4.8183,4.8226,4.8281,4.8357,4.8466,4.8428,4.847,4.8463,4.8528,4.8663,4.8479,4.848,4.8508,4.8822,4.8849,4.8875,4.8644,4.8648,4.8652,4.8816,0,4.7936,4.8101,4.8097,4.8249,4.8325,4.8288,4.837,4.8413,4.8427,4.8493,4.8508,4.8583,4.853,4.8554,4.8616,4.8634,4.8725,4.8622,4.8712,4.8715,4.8696,4.8904,4.8934,4.9087,4.8837,4.8841,4.8844,0,4.8158,4.8217,4.8377,4.842,4.8452,4.8526,4.8591,4.8655,4.8702,4.8707,4.8753,4.8735,4.8827,4.8753,4.8878,4.8808,4.8844,4.8858,4.8864,4.887,4.8785,4.8911,4.9136,4.9158,4.8877,4.8875,4.8872,0,4.83,4.8421,4.853,4.8559,4.8613,4.8665,4.869,4.8733,4.8776,4.8833,4.886,4.8927,4.8963,4.9015,4.9014,4.8961,4.914,4.9066,4.9144,4.9144,4.9181,4.9178,4.9411,4.9211,4.9211,4.921,4.921,0,4.849,4.8588,4.8594,4.8662,4.8769,4.8763,4.8869,4.8889,4.8926,4.8995,4.8968,4.9033,4.903,4.9095,4.9096,4.9197,4.9214,4.9219,4.9217,4.9219,4.9218,4.9241,4.9229,4.9216,4.9215,4.9214,4.9213,0,4.8666,4.8675,4.8791,4.8832,4.8845,4.8922,4.8956,4.9018,4.9029,4.9116,4.9136,4.9152,4.9227,4.9232,4.9319,4.9319,4.944,4.9429,4.9424,4.9421,4.9496,4.9487,4.9749,4.9781,4.9564,4.9566,4.9568,0,4.8785,4.8859,4.8907,4.8951,4.8978,4.905,4.9093,4.9089,4.9135,4.9192,4.9247,4.9319,4.9376,4.9497,4.9515,4.958,4.9568,4.9655,4.9577,4.9576,4.9564,4.9558,4.9563,4.9669,4.9672,4.9674,4.9675,0,4.8993,4.8993,4.9057,4.9121,4.9173,4.9224,4.9271,4.9308,4.9309,4.9362,4.9437,4.9482,4.9569,4.9639,4.9702,4.9726,4.97,4.97,4.972,4.9721,4.9714,4.9714,4.9461,4.9693,4.9691,4.969,4.9689,4.9688,4.9142,4.9204,4.9246,4.9317,4.9352,4.9395,4.9455,4.9472,4.9535,4.9605,4.9599,4.9681,4.9723,4.9805,4.9833,4.9896,4.9866,4.9897,4.9904,4.9911,4.9917,4.9706,4.9908,4.9908,4.9907,4.9907,4.9906,0,4.9345,4.937,4.9435,4.95,4.9555,4.9526,4.9576,4.9623,4.9696,4.9737,4.9793,4.9878,4.9945,4.9968,5.0033,5.0078,5.0068,5.0095,5.009,5.0095,4.9942,4.9916,5.0102,5.0102,5.0102,5.0102,5.0102,5.0102,4.9457,4.9559,4.9563,4.9681,4.9705,4.9785,4.9815,4.9854,4.9887,4.9982,5.0037,5.0052,5.0085,5.0151,5.021,5.0215,5.0238,5.027,5.027,5.0126,5.0106,5.0087,5.0062,5.0276,5.0277,5.0416,5.0418,5.0419]},{"header":{"parameterUnit":"m.s-1","parameterCategory":1,"la1":30.2991,"la2":30.254,"lo1":-89.0895,"lo2":-89.0444,"dy":0.0017,"dx":0.0017,"nx":28,"ny":28,"refTime":"2023-08-08T09:00:00:Z","depth":0,"parameterNumber":3,"parameterNumberName":"V-component_of_WINDS"},"data":[0,0,0,0,0,0,0,0,0,0,0,0,0,0,0,0,0,0,0,0,0,0,0,0,0,0,0,0,0,0,0,0,0,0,0,0,0,0,0,0,0,0,0,0,0,0,0,0,0,0,0,0,0,0,0,0,0,0,1.8836,1.8836,0,1.8878,1.8878,1.8879,1.8837,1.8835,1.8833,1.8832,1.8877,1.8879,1.8882,0,0,0,0,0,0,0,0,0,0,0,0,0,1.872,1.8722,1.8836,1.8836,1.8837,1.8878,1.8878,1.8879,1.8837,1.8835,1.8833,1.8831,1.8876,1.8879,1.8882,0,0,0,0,0,0,0,0,0,0,0,0,0,1.8767,1.8723,1.8836,1.8821,1.882,1.8877,1.8878,1.8879,1.8837,1.8835,1.8832,1.883,1.8875,1.8879,1.8883,1.8958,0,0,1.8895,1.8897,0,0,0,0,0,0,0,0,1.8764,1.8771,1.8822,1.8822,1.8821,1.8849,1.8854,1.8905,1.8838,1.8831,1.8832,1.8829,1.887,1.8874,1.8887,1.896,1.8962,1.8896,1.8898,1.89,1.8901,0,0,0,0,0,0,0,1.8761,1.8769,1.8852,1.8823,1.8822,1.8812,1.8816,1.8863,1.8864,1.8831,1.8828,1.8834,1.8869,1.8884,1.8888,1.8963,1.8896,1.8899,1.8902,1.8903,1.9097,1.9099,0,0,0,0,0,0,1.8759,1.8767,1.8851,1.8854,1.8786,1.8816,1.8821,1.8843,1.8863,1.8864,1.8836,1.8831,1.8878,1.8883,1.889,1.8978,1.89,1.8904,1.8906,1.9094,1.9097,1.91,0,0,0,0,0,0,1.8757,1.8767,1.8849,1.8809,1.8819,1.8821,1.8846,1.8845,1.886,1.8866,1.8866,1.8851,1.8876,1.8884,1.8941,1.8979,1.8906,1.8909,1.9091,1.9095,1.9099,1.9156,0,0,0,0,0,0,1.8754,1.8767,1.8795,1.881,1.8821,1.89,1.8848,1.8847,1.8866,1.8861,1.8881,1.8881,1.8875,1.8935,1.8945,1.8983,1.8913,1.9088,1.9093,1.9098,1.915,1.9161,1.917,0,0,0,0,0,1.875,1.881,1.8797,1.8807,1.8857,1.8902,1.8908,1.8899,1.887,1.8898,1.8902,1.8881,1.8973,1.8941,1.8952,1.8992,1.9085,1.9091,1.9097,1.9146,1.9159,1.917,0,0,0,0,0,0,1.8801,1.8812,1.8797,1.8865,1.8883,1.8895,1.8931,1.8913,1.8941,1.8935,1.8922,1.8927,1.8987,1.8995,1.8959,1.9065,1.9024,1.9033,1.9058,1.907,1.908,1.9077,1.8916,0,0,0,0,0,1.882,1.8855,1.8863,1.8922,1.8931,1.893,1.8949,1.894,1.8958,1.8966,1.8974,1.8993,1.9026,1.9048,1.9079,1.9151,1.9154,1.9184,1.9194,1.9202,1.921,1.9247,1.926,1.912,1.912,1.912,0,0,1.886,1.887,1.8894,1.8932,1.8945,1.8982,1.8936,1.8978,1.9005,1.8972,1.9026,1.9033,1.9053,1.9117,1.9146,1.9126,1.9249,1.9209,1.9216,1.9219,1.9254,1.9268,1.9279,1.9124,1.9123,1.9123,0,0,1.8952,1.8963,1.9013,1.9026,1.9045,1.9043,1.9055,1.907,1.9072,1.9126,1.9102,1.9134,1.9191,1.9206,1.9222,1.9316,1.9297,1.9326,1.9379,1.9415,1.9426,1.9436,1.9469,1.9482,1.9334,1.9334,1.9334,0,1.9,1.9054,1.9041,1.9083,1.91,1.9071,1.9121,1.9134,1.9163,1.9176,1.9152,1.9223,1.9234,1.9301,1.9324,1.9337,1.935,1.9325,1.9426,1.9435,1.9444,1.9476,1.9488,1.9338,1.9337,1.9337,1.9337,0,1.9111,1.9148,1.9186,1.9213,1.9234,1.9281,1.9274,1.9297,1.9286,1.9286,1.934,1.9353,1.9385,1.94,1.939,1.9465,1.9452,1.9427,1.9386,1.9461,1.9491,1.9503,1.9343,1.9341,1.934,1.9339,0,0,1.9238,1.9255,1.927,1.9281,1.9299,1.9328,1.9372,1.9402,1.9422,1.9442,1.9479,1.9527,1.9504,1.9521,1.9512,1.9544,1.9617,1.9515,1.9515,1.9534,1.97,1.9718,1.9732,1.9604,1.9606,1.9608,1.9698,0,1.933,1.9405,1.9394,1.9467,1.9501,1.9473,1.9511,1.9526,1.9527,1.9556,1.9557,1.9591,1.9558,1.9568,1.9599,1.9602,1.965,1.9595,1.9638,1.9639,1.9634,1.9748,1.9768,1.9852,1.9709,1.9711,1.9713,0,1.9448,1.947,1.9547,1.9558,1.9572,1.9606,1.9632,1.966,1.9676,1.9675,1.9693,1.9677,1.9721,1.9678,1.9738,1.9701,1.9717,1.9721,1.9724,1.9728,1.9681,1.9755,1.9879,1.9892,1.9731,1.9729,1.9728,0,1.9532,1.9582,1.9634,1.9644,1.9659,1.9683,1.9691,1.9704,1.9723,1.9745,1.9757,1.9785,1.98,1.9822,1.9814,1.9784,1.9876,1.9833,1.9875,1.9876,1.9897,1.9896,2.0026,1.9907,1.9907,1.9907,1.9906,0,1.9636,1.9684,1.9672,1.9704,1.9756,1.9742,1.9794,1.9798,1.981,1.9842,1.9819,1.9849,1.9837,1.9867,1.9861,1.9911,1.9918,1.9918,1.9916,1.992,1.992,1.9931,1.9925,1.991,1.9909,1.9909,1.9908,0,1.974,1.9734,1.9788,1.9796,1.98,1.9838,1.9845,1.9874,1.9873,1.9913,1.9922,1.992,1.9953,1.9947,1.9985,1.9981,2.0043,2.0034,2.0037,2.0035,2.0079,2.0075,2.022,2.0239,2.0108,2.011,2.0111,0,1.9807,1.9843,1.9854,1.9873,1.9882,1.9914,1.9932,1.9919,1.9938,1.9958,1.9985,2.0016,2.0041,2.0096,2.0098,2.0126,2.0117,2.0166,2.0121,2.0124,2.0118,2.0116,2.0119,2.0175,2.0177,2.0178,2.0179,0,1.9927,1.9921,1.9948,1.9973,1.9995,2.0014,2.0032,2.0049,2.0037,2.006,2.0094,2.0112,2.0149,2.0181,2.0206,2.0214,2.0195,2.0193,2.0204,2.0209,2.021,2.021,2.0062,2.019,2.0189,2.0188,2.0187,2.0187,2.0014,2.0044,2.0056,2.0086,2.0097,2.0113,2.0141,2.0142,2.0169,2.0198,2.0188,2.0226,2.024,2.0272,2.0282,2.0312,2.0294,2.031,2.0315,2.0319,2.0324,2.0205,2.0316,2.0316,2.0316,2.0316,2.0315,0,2.0132,2.0138,2.0165,2.0189,2.0213,2.0191,2.0208,2.023,2.0263,2.0277,2.03,2.0338,2.0368,2.0371,2.0399,2.0422,2.0413,2.0429,2.0428,2.043,2.0339,2.0326,2.0435,2.0435,2.0435,2.0435,2.0435,2.0435,2.0196,2.0245,2.0241,2.0295,2.03,2.0336,2.0348,2.0363,2.0373,2.0416,2.044,2.0441,2.0451,2.0479,2.0505,2.0505,2.0516,2.0536,2.0533,2.0448,2.0436,2.0425,2.0413,2.0538,2.0539,2.0621,2.0622,2.0622]}]]